User: anonymous   Login
Location: Caltech
(34.1382°N, 118.1253°W)
Time: 03:34:06
(UTC-07:00)
Language:

OPAL - Orbit

View from above orbital plane
View from above orbital plane
View from above satellite
View from above satellite

Ground track
Ground track

The orbit data is extracted from the following two-line orbital elements,

1 26063U 00004C   14304.05970725  .00000211  00000-0  91379-4 0   996
2 26063 100.2257 115.2188 0037175 134.7892 225.6322 14.36427785773533
Epoch (UTC): 31 October 2014 01:25:58
Eccentricity: 0.0037175
inclination: 100.2257°
perigee height: 744 km
apogee height: 797 km
right ascension of ascending node: 115.2188°
argument of perigee: 134.7892°
revolutions per day: 14.36427785
mean anomaly at epoch: 225.6322°
orbit number at epoch: 77353

The dashed part of the orbit path shows where the satellite is in the earth's shadow,  

DLR